Back to catalog

STARLINK-31720

AliveCommunicationsVLEO
NORAD 59497·PAYLOAD·🇺🇸 United States

Launched Apr 13, 2024 from Cape Canaveral Space Force Station

Loading…

Next Passes (next 24 hours)

TLE

FreshSource: CelesTrak SupGP

Epoch: Sep 14, 2026, 21:26 UTC

1 59497C 24071P   26257.89354167 -.00002903  00000+0 -10516-3 0  2571
2 59497  43.0018 351.6920 0001570 269.9071 191.4002 15.27575424    15

Track STARLINK-31720 in real time with AllMySat

Download on the App Store